ラインムート第2彗星

44P/Reinmuth 2 (2001)

English version
Home page
Updated on May 5, 2012

---------------------------------------------------------------------

・ プロフィール

・ 軌道要素

Epoch 2001 Feb. 20.0 TT = JDT 2451960.5
T 2001 Feb. 19.98448 TT                                 MPC
q   1.8897169            (2000.0)            P               Q
n   0.14867209     Peri.   46.10072     +0.94717130     +0.30157038
a   3.5289844      Node   296.06957     -0.31791720     +0.83781653
e   0.4645154      Incl.    6.98179     -0.04236959     +0.45510303
P   6.63
From 760 observations 1993 Feb. 26-2010 Feb. 20, mean residual 0".8.
     Nongravitational parameters A1 = +0.02, A2 = -0.0492.

・ 星図

・ 光度変化

        m1 =  9.0 + 5 logΔ + 15.0 log r  [ ,0]  (              〜2001年 2月19日)
        m1 = 10.4 + 5 logΔ + 10.0 log r  [0, ]  (2001年 2月19日〜              )

---------------------------------------------------------------------

軌道要素はM.P.E.C. 2012-J16に掲載されたものです。
星図は StellaNavigator Ver.2.0 for Windows (アストロアーツ編著 / アスキー出版局刊) で作成したものです。
光度グラフはComet for Windowsで作成したものです。

---------------------------------------------------------------------

Copyright(C) Seiichi Yoshida (comet@aerith.net). All rights reserved.